KSBAKHHR

Guest
Details From KSBA - Santa Barbara Mun
To KHHR - Jack Northrop Fld Hawthorne Muni
Flight Number -
Tags generated
Created
Modified
Stats Distance 81 nm / 149 km
Max Altitude 3,700 ft / 1,128 m
Waypoints 3
Social Downloads 0
Likes 0
Share VATSIM

Download

Looking for another format? Having issues loading an existing format? Contact us
Advertisement - Login to hide

Notes

Basic altitude profile: - Ascent Rate: 2500ft/min - Ascent Speed: 250kts - Cruise Altitude: 35000ft - Cruise Speed: 420kts - Descent Rate: 1500ft/min - Descent Speed: 250kts Options: - Use NATs: no - Use PACOTS: no - Use low airways: yes - Use high airways: no

Route

KSBA BAYST KHHR

ID Type Via Altitude Latitude Longitude Leg Dist Tot Dist Heading (true) Name
O KSBA APT - 0 ft / 0 m 34.42596˚ -119.84072˚ - 0 nm - Santa Barbara Mun
BAYST FIX - 3,700 ft / 1,128 m 34.02965˚ -118.66367˚ 63 nm 63 nm 112° / 112° -
O KHHR APT - 0 ft / 0 m 33.92286˚ -118.33516˚ 17 nm 80 nm 111° / 111° Jack Northrop Fld Hawthorne Muni

Altitude Profile

Advertisement - Login to hide

KSBA

Details ICAO KSBA (SBA)
Name Santa Barbara Mun
Region United States
Timezone America/Los_Angeles (UTC-7.0)
Stats Elevation 13 ft / 4 m (AMSL)
Location 34.425961° -119.840724°
Runways 3
Magnetic Variation 12.333° E

METAR

KSBA 260953Z AUTO 00000KT 10SM CLR 13/08 A2999 RMK AO2 SLP154 T01280083

Decode

TAF

KSBA 260546Z 2606/2706 31006KT P6SM SKC WS010/33030KT FM261000 VRB03KT P6SM SCT015 FM261700 16007KT P6SM SKC FM262000 23015KT P6SM SKC FM270100 28010KT P6SM SKC WS010/33040KT

Decode

Departure Runways

ID Width Length Bearing (true) Bearing (mag) Surface Threshold Offset Overrun Length
07 151 ft / 46 m 6,047 ft / 1,843 m 88.54° 76.21° Asphalt 0 ft / 0 m 0 ft / 0 m
15L 75 ft / 23 m 4,182 ft / 1,275 m 165.71° 153.38° Asphalt 217 ft / 66 m 0 ft / 0 m
15R 98 ft / 30 m 4,186 ft / 1,276 m 165.71° 153.38° Asphalt 0 ft / 0 m 0 ft / 0 m
25 151 ft / 46 m 6,047 ft / 1,843 m 268.55° 256.22° Asphalt 0 ft / 0 m 0 ft / 0 m
33L 98 ft / 30 m 4,186 ft / 1,276 m 345.71° 333.38° Asphalt 0 ft / 0 m 0 ft / 0 m
33R 75 ft / 23 m 4,182 ft / 1,275 m 345.72° 333.39° Asphalt 0 ft / 0 m 0 ft / 0 m

KHHR

Details ICAO KHHR (HHR)
Name Jack Northrop Fld Hawthorne Muni
Region United States
Timezone America/Los_Angeles (UTC-7.0)
Stats Elevation 66 ft / 20 m (AMSL)
Location 33.922857° -118.335162°
Runways 1
Magnetic Variation 11.949° E

METAR

KHHR 260953Z AUTO 00000KT 10SM FEW016 14/12 A3001 RMK AO2 SLP161 T01440117

Decode

TAF

Not found

Destination Runways

ID Width Length Bearing (true) Bearing (mag) Surface Threshold Offset Overrun Length
07 98 ft / 30 m 4,961 ft / 1,512 m 86.70° 74.75° Concrete 971 ft / 296 m 0 ft / 0 m
25 98 ft / 30 m 4,961 ft / 1,512 m 266.70° 254.75° Concrete 463 ft / 141 m 0 ft / 0 m

Approach Navaids

Runway Type Ident Frequency Range Bearing (true) Bearing (mag) Slope Elevation
25 Localiser IHHR 109.10 MHz 18 nm / 33 km 266.65° 254.70° - 66 ft / 20 m (AMSL)

Popular Alternatives